Satellite: NOAA-11 Catalog number: 19531 Epoch time: 11012.76774404 Element set: 0360 Inclination: 098.7591 deg RA of node: 103.1452 deg Eccentricity: 0.0010442 Arg of perigee: 273.0974 deg Mean anomaly: 086.9008 deg Mean motion: 14.14900788 rev/day Decay rate: -1.46e-06 rev/day^2 Epoch rev: 15077 Checksum: 287
Satellite: NOAA-12 Catalog number: 21263 Epoch time: 11012.70619247 Element set: 0853 Inclination: 098.7582 deg RA of node: 030.7667 deg Eccentricity: 0.0011615 Arg of perigee: 280.3612 deg Mean anomaly: 079.6255 deg Mean motion: 14.25678245 rev/day Decay rate: 2.9e-07 rev/day^2 Epoch rev: 02225 Checksum: 289
Satellite: MET-3/5 Catalog number: 21655 Epoch time: 11013.76566993 Element set: 12 Inclination: 082.5568 deg RA of node: 159.8668 deg Eccentricity: 0.0013527 Arg of perigee: 178.4933 deg Mean anomaly: 181.6264 deg Mean motion: 13.17024292 rev/day Decay rate: 5.1e-07 rev/day^2 Epoch rev: 93339 Checksum: 320
Satellite: MET-2/21 Catalog number: 22782 Epoch time: 11012.78341468 Element set: 989 Inclination: 082.5466 deg RA of node: 086.1827 deg Eccentricity: 0.0022428 Arg of perigee: 170.8274 deg Mean anomaly: 189.3306 deg Mean motion: 13.83653219 rev/day Decay rate: -3.2e-07 rev/day^2 Epoch rev: 87706 Checksum: 324
Satellite: OKEAN-4 Catalog number: 23317 Epoch time: 11012.77466892 Element set: 0447 Inclination: 082.5407 deg RA of node: 158.2289 deg Eccentricity: 0.0020438 Arg of perigee: 271.9020 deg Mean anomaly: 087.9855 deg Mean motion: 14.82923407 rev/day Decay rate: 3.60e-06 rev/day^2 Epoch rev: 87751 Checksum: 317
Satellite: NOAA-14 Catalog number: 23455 Epoch time: 11012.69503253 Element set: 0341 Inclination: 098.8632 deg RA of node: 096.8213 deg Eccentricity: 0.0009625 Arg of perigee: 006.4188 deg Mean anomaly: 353.7118 deg Mean motion: 14.13804507 rev/day Decay rate: -1.0e-08 rev/day^2 Epoch rev: 82710 Checksum: 277
Satellite: NOAA-15 Catalog number: 25338 Epoch time: 11012.97825525 Element set: 0670 Inclination: 098.6414 deg RA of node: 001.3732 deg Eccentricity: 0.0010493 Arg of perigee: 179.4824 deg Mean anomaly: 180.6353 deg Mean motion: 14.24877783 rev/day Decay rate: 8.9e-07 rev/day^2 Epoch rev: 65862 Checksum: 320
Satellite: RESURS Catalog number: 25394 Epoch time: 11012.56572064 Element set: 0700 Inclination: 098.2987 deg RA of node: 024.1676 deg Eccentricity: 0.0001617 Arg of perigee: 004.5977 deg Mean anomaly: 355.5222 deg Mean motion: 14.24221300 rev/day Decay rate: -1.0e-07 rev/day^2 Epoch rev: 65015 Checksum: 258
Satellite: FENGYUN1 Catalog number: 25730 Epoch time: 11013.52997023 Element set: 232 Inclination: 098.8044 deg RA of node: 338.2369 deg Eccentricity: 0.0022608 Arg of perigee: 026.1112 deg Mean anomaly: 334.1233 deg Mean motion: 14.08490347 rev/day Decay rate: -9.3e-07 rev/day^2 Epoch rev: 60129 Checksum: 266
Satellite: OKEAN-0 Catalog number: 25860 Epoch time: 11012.81668572 Element set: 0202 Inclination: 097.8627 deg RA of node: 343.7401 deg Eccentricity: 0.0001753 Arg of perigee: 093.6402 deg Mean anomaly: 266.5003 deg Mean motion: 14.73700756 rev/day Decay rate: 9.0e-07 rev/day^2 Epoch rev: 61777 Checksum: 284
Satellite: NOAA-16 Catalog number: 26536 Epoch time: 11013.31294184 Element set: 148 Inclination: 099.1572 deg RA of node: 040.5929 deg Eccentricity: 0.0011241 Arg of perigee: 106.6821 deg Mean anomaly: 253.5564 deg Mean motion: 14.12592997 rev/day Decay rate: -1.30e-06 rev/day^2 Epoch rev: 53149 Checksum: 291
Satellite: NOAA-17 Catalog number: 27453 Epoch time: 11012.77805036 Element set: 0144 Inclination: 098.4029 deg RA of node: 059.4625 deg Eccentricity: 0.0010810 Arg of perigee: 242.9298 deg Mean anomaly: 117.0771 deg Mean motion: 14.24227228 rev/day Decay rate: 1.37e-06 rev/day^2 Epoch rev: 44453 Checksum: 287
Satellite: NOAA-18 Catalog number: 28654 Epoch time: 11012.78395885 Element set: 0629 Inclination: 098.9778 deg RA of node: 323.7135 deg Eccentricity: 0.0014230 Arg of perigee: 179.5663 deg Mean anomaly: 180.5532 deg Mean motion: 14.11425538 rev/day Decay rate: 1.23e-06 rev/day^2 Epoch rev: 29100 Checksum: 314
Satellite: NOAA-19 Catalog number: 33591 Epoch time: 11012.81784686 Element set: 0824 Inclination: 098.8125 deg RA of node: 315.7115 deg Eccentricity: 0.0014889 Arg of perigee: 057.6456 deg Mean anomaly: 302.6156 deg Mean motion: 14.11121384 rev/day Decay rate: 3.88e-06 rev/day^2 Epoch rev: 09947 Checksum: 324
/EX SB KEPS @ AMSAT $ORB11013.M Orbital Elements 11013.MISC
HR AMSAT ORBITAL ELEMENTS FOR MANNED AND MISCELLANEOUS SATELLITES FROM WA5QGD FORT WORTH,TX January 13, 2011 Send Subscribe/unsubscribe to KEPS at http://www.amsat.org/mailman/listinfo/keps BID: ORB11013.M TO ALL RADIO AMATEURS BT
Satellite: HUBBLE Catalog number: 20580 Epoch time: 11011.15833349 Element set: 699 Inclination: 028.4718 deg RA of node: 322.0136 deg Eccentricity: 0.0003433 Arg of perigee: 245.5637 deg Mean anomaly: 114.4619 deg Mean motion: 15.01138125 rev/day Decay rate: 6.12e-06 rev/day^2 Epoch rev: 93603 Checksum: 263
Satellite: ISS Catalog number: 25544 Epoch time: 11013.87834491 Element set: 636 Inclination: 051.6444 deg RA of node: 231.9850 deg Eccentricity: 0.0005243 Arg of perigee: 180.6343 deg Mean anomaly: 008.4322 deg Mean motion: 15.71951205 rev/day Decay rate: 1.00464e-03 rev/day^2 Epoch rev: 69661 Checksum: 280
Satellite: CO-58 Catalog number: 28895 Epoch time: 11012.63529875 Element set: 0775 Inclination: 097.9881 deg RA of node: 254.8322 deg Eccentricity: 0.0017817 Arg of perigee: 352.4169 deg Mean anomaly: 007.6808 deg Mean motion: 14.59994104 rev/day Decay rate: 3.38e-06 rev/day^2 Epoch rev: 27754 Checksum: 360
Satellite: FALCON Catalog number: 30776 Epoch time: 11012.94000082 Element set: 0000 Inclination: 035.4322 deg RA of node: 210.4861 deg Eccentricity: 0.0001243 Arg of perigee: 258.4188 deg Mean anomaly: 101.6389 deg Mean motion: 15.04061827 rev/day Decay rate: 8.96e-06 rev/day^2 Epoch rev: 21165 Checksum: 247
Satellite: MAST Catalog number: 31126 Epoch time: 11013.51074655 Element set: 58 Inclination: 097.9122 deg RA of node: 049.3528 deg Eccentricity: 0.0093698 Arg of perigee: 292.5694 deg Mean anomaly: 066.5621 deg Mean motion: 14.53663465 rev/day Decay rate: -4.0e-08 rev/day^2 Epoch rev: 19861 Checksum: 308
Satellite: CAPE1 Catalog number: 31130 Epoch time: 11012.52427126 Element set: 0080 Inclination: 097.9147 deg RA of node: 045.4343 deg Eccentricity: 0.0101641 Arg of perigee: 305.0715 deg Mean anomaly: 054.0985 deg Mean motion: 14.52278065 rev/day Decay rate: 4.2e-07 rev/day^2 Epoch rev: 19804 Checksum: 254
Satellite: COMPASS Catalog number: 32787 Epoch time: 11012.33973801 Element set: 0881 Inclination: 097.8680 deg RA of node: 078.9442 deg Eccentricity: 0.0015269 Arg of perigee: 328.1661 deg Mean anomaly: 031.8649 deg Mean motion: 14.82108497 rev/day Decay rate: 6.02e-06 rev/day^2 Epoch rev: 14647 Checksum: 319
Satellite: AAUSAT2 Catalog number: 32788 Epoch time: 11012.65911588 Element set: 0870 Inclination: 097.8688 deg RA of node: 079.4368 deg Eccentricity: 0.0014930 Arg of perigee: 328.2611 deg Mean anomaly: 031.7666 deg Mean motion: 14.82266737 rev/day Decay rate: 3.5e-07 rev/day^2 Epoch rev: 14653 Checksum: 328
Satellite: DO-64 Catalog number: 32789 Epoch time: 11013.71911106 Element set: 887 Inclination: 097.8773 deg RA of node: 081.2237 deg Eccentricity: 0.0014772 Arg of perigee: 322.0285 deg Mean anomaly: 037.9870 deg Mean motion: 14.82542557 rev/day Decay rate: 4.51e-06 rev/day^2 Epoch rev: 14669 Checksum: 324
Satellite: CO-66 Catalog number: 32791 Epoch time: 11012.19201465 Element set: 0872 Inclination: 097.8696 deg RA of node: 078.7807 deg Eccentricity: 0.0015668 Arg of perigee: 327.3585 deg Mean anomaly: 032.6651 deg Mean motion: 14.81852837 rev/day Decay rate: -2.0e-08 rev/day^2 Epoch rev: 14640 Checksum: 325
Satellite: RS-30 Catalog number: 32953 Epoch time: 11013.60861912 Element set: 384 Inclination: 082.5011 deg RA of node: 258.8296 deg Eccentricity: 0.0019540 Arg of perigee: 005.9994 deg Mean anomaly: 354.1318 deg Mean motion: 12.43010353 rev/day Decay rate: 1.0e-07 rev/day^2 Epoch rev: 11988 Checksum: 277
Satellite: TACSAT-3 Catalog number: 35001 Epoch time: 11012.48983316 Element set: 0486 Inclination: 040.4550 deg RA of node: 034.6100 deg Eccentricity: 0.0021411 Arg of perigee: 132.5067 deg Mean anomaly: 227.7561 deg Mean motion: 15.44402197 rev/day Decay rate: 7.144e-05 rev/day^2 Epoch rev: 09297 Checksum: 261
Satellite: PHARMSAT Catalog number: 35002 Epoch time: 11012.45432056 Element set: 445 Inclination: 040.4692 deg RA of node: 032.3281 deg Eccentricity: 0.0023264 Arg of perigee: 135.7779 deg Mean anomaly: 224.4901 deg Mean motion: 15.44649281 rev/day Decay rate: 6.104e-05 rev/day^2 Epoch rev: 9299 Checksum: 271
Satellite: HAWKSAT1 Catalog number: 35003 Epoch time: 11012.41086743 Element set: 485 Inclination: 040.4580 deg RA of node: 018.7777 deg Eccentricity: 0.0022573 Arg of perigee: 162.1528 deg Mean anomaly: 198.0090 deg Mean motion: 15.50952740 rev/day Decay rate: 1.7760e-04 rev/day^2 Epoch rev: 9314 Checksum: 279
Satellite: CP6 Catalog number: 35004 Epoch time: 11013.38186984 Element set: 488 Inclination: 040.4594 deg RA of node: 009.3329 deg Eccentricity: 0.0022522 Arg of perigee: 176.2385 deg Mean anomaly: 183.8609 deg Mean motion: 15.53096643 rev/day Decay rate: 2.0109e-04 rev/day^2 Epoch rev: 9332 Checksum: 301
Satellite: AEROCUB3 Catalog number: 35005 Epoch time: 11006.09222617 Element set: 610 Inclination: 040.4461 deg RA of node: 021.7975 deg Eccentricity: 0.0025578 Arg of perigee: 084.1677 deg Mean anomaly: 280.7191 deg Mean motion: 16.39196088 rev/day Decay rate: 1.4049365e-01 rev/day^2 Epoch rev: 9254 Checksum: 305
